Simultaneous Nadir Overpasses (SNOs) Predictions

Prediction of SNOs between LANDSAT-8 and NOAA-19 Satellite Orbit:

Table of predicted SNOs for the next 14.0 days since TLE Epoch: 6/11/2022
Index Date (LANDSAT-8) Time (LANDSAT-8) Lat,Lon (LANDSAT-8) SZA (LANDSAT-8 ) Date (NOAA-19) Time (NOAA-19) Lat,Lon (NOAA-19) SZA (NOAA-19 ) Distance(km) Time Diff (sec)
1 06/13/2022 01:58:02 -80.81, 6.28 120.57 06/13/2022 01:56:53 -80.79, 6.25 120.62 1.91 69
2 06/13/2022 02:47:29 80.79, 173.66 59.39 06/13/2022 02:47:58 80.79, 173.51 59.39 2.63 29
3 06/15/2022 08:21:15 -80.79, -89.85 120.75 06/15/2022 08:20:49 -80.80, -89.77 120.74 1.92 26
4 06/15/2022 09:10:41 80.79, 77.85 59.26 06/15/2022 09:11:53 80.79, 77.90 59.30 0.95 72
5 06/17/2022 13:54:59 80.81, 7.02 59.22 06/17/2022 13:53:50 80.80, 7.04 59.18 1.37 69
6 06/17/2022 14:44:26 -80.81, 174.66 120.79 06/17/2022 14:44:44 -80.79, 174.53 120.81 2.96 18
7 06/19/2022 20:18:11 80.80, -88.87 59.15 06/19/2022 20:17:46 80.80, -89.04 59.12 2.96 25
8 06/19/2022 21:07:38 -80.80, 78.78 120.85 06/19/2022 21:08:39 -80.79, 78.81 120.84 1.66 61
9 06/22/2022 02:41:23 80.79, 175.18 59.11 06/22/2022 02:41:41 80.80, 175.19 59.12 1.10 18
10 06/24/2022 08:15:08 -80.80, -88.09 120.86 06/24/2022 08:14:31 -80.80, -87.93 120.86 2.92 37



Historial Predications of SNOs between LANDSAT-8 and NOAA-19
